Regional Weather Roundup
Issued by NWS Kansas City/Pleasant Hill, MO

Home | Current Version | Previous Version | Text Only | Print | Product List | Glossary On
Versions: 1 2 3 4 5 6 7 8 9 10 11 12 13 14 15 16 17 18 19 20 21 22 23 24 25 26 27 28
000
ASUS43 KEAX 260010
RWREAX

WEATHER ROUNDUP FOR EASTERN KANSAS AND NORTHWEST MISSOURI
NATIONAL WEATHER SERVICE KANSAS CITY/PLEASANT HILL MO
700 PM CDT THU AUG 25 2016

KSZ040-057-103>105-MOZ028-029-037-043-260100-
...KANSAS CITY METROPOLITAN AREA...

CITY           SKY/WX    TMP DP  RH WIND       PRES   REMARKS
K.C. INTL      CLOUDY    77  67  71 NE14      30.04S
6HR MIN TEMP:  77; 6HR MAX TEMP:  83;

K.C. DOWNTOWN  CLOUDY    79  69  71 N12       30.01S
6HR MIN TEMP:  79; 6HR MAX TEMP:  87;

LEES SUMMIT    PTSUNNY   79  71  76 N10       30.03S
6HR MIN TEMP:  79; 6HR MAX TEMP:  86;

OLATHE - IXD   CLOUDY    78  72  81 N12       30.03S
6HR MIN TEMP:  78; 6HR MAX TEMP:  84;

OLATHE - OJC   MOSUNNY   80  71  74 N9        30.02F
6HR MIN TEMP:  79; 6HR MAX TEMP:  83;

LAWRENCE       PTSUNNY   78  70  76 N8        30.03S

$$

MOZ001>008-011>017-020>025-030>033-038>040-044>046-053-054-260100-
...NORTHERN AND CENTRAL MISSOURI...

CITY           SKY/WX    TMP DP  RH WIND       PRES   REMARKS
ST. JOSEPH     MOSUNNY   77  66  68 NE10      30.06S
6HR MIN TEMP:  75; 6HR MAX TEMP:  80;

MOSBY          MOCLDY    77  68  73 N5        30.03S
WHITEMAN AFB   PTCLDY    83  77  80 NE6       30.00F HX  92
6HR MIN TEMP:  82; 6HR MAX TEMP:  87;

CLINTON        TSTM      81  75  83 CALM      30.02R
SEDALIA        PTCLDY    84  74  71 N3        30.03F HX  91
6HR MIN TEMP:  84; 6HR MAX TEMP:  88;

WARSAW         NOT AVBL
CHILLICOTHE    NOT AVBL
KIRKSVILLE     CLOUDY    74  64  71 NE5       30.08R
6HR MIN TEMP:  69; 6HR MAX TEMP:  78; 6HR PCP:  0.59;


$$

MOZ041-047>049-056>058-063>065-088>090-097-260100-
...EASTERN AND SOUTHERN MISSOURI...

CITY           SKY/WX    TMP DP  RH WIND       PRES   REMARKS
ST. LOUIS INTL MOCLDY    90  70  51 W7        30.02S HX  95
6HR MIN TEMP:  89; 6HR MAX TEMP:  94;

SPIRIT OF STL  MOCLDY    84  77  79 S3        30.00F HX  94
COLUMBIA       CLOUDY    82  73  74 NE7       30.02F
JEFFERSON CITY CLOUDY    80  74  81 E3        30.00F
ROLLA          RAIN      77  74  90 W9        30.03F FOG
OSAGE BEACH    CLOUDY    72  70  93 CALM      30.03F
SPRINGFIELD    CLOUDY    87  69  54 S6        30.02S HX  91
BRANSON        CLOUDY    82  72  69 S7        30.05F
JOPLIN         TSTM      74  66  76 SE7       30.01F
WEST PLAINS    CLOUDY    83  71  67 SE3       30.08S

$$

IAZ060-094-KSZ022-034>040-054-083-096-NEZ052-066-093-260100-
...KANSAS...SOUTHEAST NEBRASKA AND IOWA...

CITY           SKY/WX    TMP DP  RH WIND       PRES   REMARKS
TOPEKA         CLOUDY    78  69  73 N9        30.03F
6HR MIN TEMP:  78; 6HR MAX TEMP:  83;

MANHATTAN      SUNNY     77  65  66 N7        30.05F
EMPORIA        MOSUNNY   78  69  73 N12       30.02S
CHANUTE        CLOUDY    86  73  65 N8        30.00R HX  93
WICHITA        MOSUNNY   81  66  60 N9        30.02F
OMAHA          MOSUNNY   76  62  62 N6        30.10F
LINCOLN        SUNNY     76  61  59 NE8       30.11F
FALLS CITY     SUNNY     76  62  62 N8        30.07F
LAMONI         CLOUDY    73  63  70 NE7       30.09S
DES MOINES     CLOUDY    75  60  59 NW5       30.09S

$$





USA.gov is the U.S. government's official web portal to all federal, state and local government web resources and services.